FDB335 OMDB-OPKC

Flight info

Callsign FDB335
Flight time 1h 46m
Altitude 39000
Route IVURO M428 TARBO Z440 DAMUM B524 ALPOR G216 LAKIV
Aircraft A20N/M-SDE2E3FGHIRWXY/LB1

Departure

Time 2026-05-09 09:15
Airport Dubai International Airport (OMDB)

Arrival

Time 2026-05-09 11:02
Airport Jinnah International Airport (OPKC)
Time Latitude Longitude Altitude Speed Heading
2026-05-09 08:52 25.26213 55.33974 21 ft 0 kts 301°
2026-05-09 09:01 25.26212 55.33975 20 ft 0 kts 301°
2026-05-09 09:01 25.26210 55.33977 19 ft 0 kts 301°
2026-05-09 09:01 25.26209 55.33980 19 ft 0 kts 301°
2026-05-09 09:02 25.26208 55.33982 19 ft 0 kts 301°
2026-05-09 09:02 25.26192 55.34010 20 ft 9 kts 301°
2026-05-09 09:02 25.26165 55.34058 22 ft 0 kts 342°
2026-05-09 09:02 25.26156 55.34061 23 ft 0 kts 14°
2026-05-09 09:03 25.26148 55.34059 23 ft 0 kts 30°
2026-05-09 09:04 25.26150 55.34060 22 ft 2 kts 30°
2026-05-09 09:04 25.26186 55.34095 20 ft 11 kts 62°
2026-05-09 09:05 25.26162 55.34185 19 ft 16 kts 120°
2026-05-09 09:05 25.26092 55.34308 19 ft 19 kts 121°
2026-05-09 09:05 25.26076 55.34338 20 ft 4 kts 121°
2026-05-09 09:05 25.26051 55.34383 21 ft 10 kts 121°
2026-05-09 09:06 25.26002 55.34472 20 ft 17 kts 121°
2026-05-09 09:06 25.25981 55.34510 21 ft 0 kts 121°
2026-05-09 09:06 25.25975 55.34520 20 ft 6 kts 121°
2026-05-09 09:07 25.25930 55.34603 20 ft 19 kts 121°
2026-05-09 09:07 25.25840 55.34764 22 ft 26 kts 122°
2026-05-09 09:07 25.25768 55.34895 20 ft 9 kts 122°
2026-05-09 09:07 25.25764 55.34902 22 ft 0 kts 122°
2026-05-09 09:08 25.25740 55.34974 20 ft 20 kts 89°
2026-05-09 09:08 25.25812 55.35037 20 ft 24 kts 37°
2026-05-09 09:09 25.25926 55.35123 20 ft 21 kts 33°
2026-05-09 09:09 25.26092 55.35233 20 ft 24 kts 38°
2026-05-09 09:09 25.26087 55.35366 23 ft 27 kts 118°
2026-05-09 09:09 25.26001 55.35517 23 ft 21 kts 123°
2026-05-09 09:10 25.25902 55.35693 21 ft 31 kts 121°
2026-05-09 09:10 25.25780 55.35914 23 ft 37 kts 121°
2026-05-09 09:10 25.25701 55.36056 23 ft 11 kts 121°
2026-05-09 09:10 25.25649 55.36152 23 ft 18 kts 121°
2026-05-09 09:11 25.25574 55.36289 22 ft 24 kts 123°
2026-05-09 09:11 25.25479 55.36458 23 ft 27 kts 121°
2026-05-09 09:11 25.25377 55.36643 23 ft 15 kts 121°
2026-05-09 09:11 25.25325 55.36737 22 ft 19 kts 121°
2026-05-09 09:12 25.25232 55.36906 23 ft 33 kts 120°
2026-05-09 09:12 25.25104 55.37133 26 ft 39 kts 120°
2026-05-09 09:12 25.24951 55.37413 30 ft 35 kts 120°
2026-05-09 09:12 25.24824 55.37640 35 ft 39 kts 122°
2026-05-09 09:13 25.24741 55.37790 37 ft 7 kts 120°
2026-05-09 09:13 25.24689 55.37886 41 ft 21 kts 121°
2026-05-09 09:13 25.24699 55.37969 40 ft 15 kts 41°
2026-05-09 09:13 25.24821 55.37998 41 ft 19 kts 323°
2026-05-09 09:14 25.24855 55.37948 37 ft 0 kts 301°
2026-05-09 09:14 25.24896 55.37874 38 ft 45 kts 302°
2026-05-09 09:15 25.25195 55.37337 26 ft 115 kts 301°
2026-05-09 09:15 25.25698 55.36445 179 ft 148 kts 303°
2026-05-09 09:15 25.26268 55.35422 598 ft 163 kts 303°
2026-05-09 09:15 25.26912 55.34309 1035 ft 180 kts 302°
2026-05-09 09:16 25.27549 55.33179 1543 ft 165 kts 300°
2026-05-09 09:16 25.28643 55.31092 2836 ft 156 kts 301°
2026-05-09 09:16 25.29226 55.30078 3461 ft 157 kts 308°
2026-05-09 09:17 25.30154 55.29468 3837 ft 165 kts 348°
2026-05-09 09:17 25.31330 55.29483 4575 ft 172 kts 357°
2026-05-09 09:17 25.32522 55.29539 5509 ft 175 kts 356°
2026-05-09 09:17 25.33802 55.29577 6221 ft 197 kts 355°
2026-05-09 09:18 25.35282 55.29605 6658 ft 228 kts 356°
2026-05-09 09:18 25.36906 55.29642 6790 ft 234 kts 356°
2026-05-09 09:18 25.38530 55.29860 6836 ft 242 kts 15°
2026-05-09 09:18 25.39966 55.30957 6880 ft 268 kts 48°
2026-05-09 09:19 25.40827 55.32898 7325 ft 298 kts 78°
2026-05-09 09:19 25.40863 55.35259 7998 ft 319 kts 100°
2026-05-09 09:19 25.40417 55.37739 8652 ft 339 kts 105°
2026-05-09 09:19 25.39911 55.40381 9207 ft 362 kts 103°
2026-05-09 09:20 25.39483 55.43203 9748 ft 382 kts 101°
2026-05-09 09:20 25.39147 55.46142 10685 ft 385 kts 99°
2026-05-09 09:20 25.38863 55.49095 11676 ft 388 kts 98°
2026-05-09 09:20 25.38601 55.52027 12342 ft 390 kts 98°
2026-05-09 09:21 25.38338 55.55030 12667 ft 391 kts 98°
2026-05-09 09:21 25.38066 55.58100 12825 ft 411 kts 98°
2026-05-09 09:21 25.37781 55.61272 12862 ft 415 kts 98°
2026-05-09 09:21 25.37495 55.64450 12859 ft 415 kts 98°
2026-05-09 09:22 25.37207 55.67630 12858 ft 416 kts 98°
2026-05-09 09:22 25.36918 55.70813 12855 ft 415 kts 98°
2026-05-09 09:22 25.36628 55.73989 12856 ft 415 kts 98°
2026-05-09 09:22 25.36337 55.77169 12853 ft 415 kts 98°
2026-05-09 09:23 25.36046 55.80344 12851 ft 414 kts 98°
2026-05-09 09:23 25.35755 55.83512 12845 ft 415 kts 98°
2026-05-09 09:23 25.35460 55.86696 12844 ft 415 kts 98°
2026-05-09 09:23 25.35167 55.89865 12842 ft 415 kts 98°
2026-05-09 09:24 25.34873 55.93039 12839 ft 414 kts 98°
2026-05-09 09:24 25.34584 55.96169 12843 ft 415 kts 98°
2026-05-09 09:24 25.34290 55.99337 12843 ft 414 kts 98°
2026-05-09 09:24 25.33993 56.02509 12839 ft 414 kts 98°
2026-05-09 09:25 25.33697 56.05673 12842 ft 414 kts 98°
2026-05-09 09:25 25.33401 56.08834 12838 ft 413 kts 98°
2026-05-09 09:25 25.33103 56.12004 12830 ft 413 kts 98°
2026-05-09 09:25 25.32665 56.15141 12823 ft 412 kts 105°
2026-05-09 09:26 25.31885 56.18183 12826 ft 409 kts 112°
2026-05-09 09:26 25.30918 56.21087 12826 ft 408 kts 112°
2026-05-09 09:26 25.29938 56.24046 12939 ft 412 kts 112°
2026-05-09 09:26 25.28953 56.27047 13763 ft 414 kts 112°
2026-05-09 09:27 25.27973 56.30037 14602 ft 417 kts 112°
2026-05-09 09:27 25.26976 56.33071 15314 ft 422 kts 112°
2026-05-09 09:27 25.25968 56.36132 16046 ft 426 kts 113°
2026-05-09 09:27 25.24946 56.39235 16740 ft 430 kts 113°
2026-05-09 09:28 25.23916 56.42354 17392 ft 435 kts 113°
2026-05-09 09:28 25.22868 56.45522 18023 ft 440 kts 113°
2026-05-09 09:28 25.21826 56.48671 18537 ft 445 kts 113°
2026-05-09 09:28 25.20757 56.51899 19046 ft 449 kts 113°
2026-05-09 09:29 25.19679 56.55154 19544 ft 454 kts 113°
2026-05-09 09:29 25.18587 56.58448 20023 ft 459 kts 113°
2026-05-09 09:29 25.17420 56.61740 20501 ft 462 kts 115°
2026-05-09 09:29 25.16202 56.64931 20949 ft 466 kts 116°
2026-05-09 09:30 25.14897 56.68304 21426 ft 470 kts 116°
2026-05-09 09:30 25.13610 56.71651 21871 ft 475 kts 116°
2026-05-09 09:30 25.12321 56.75033 22304 ft 479 kts 115°
2026-05-09 09:30 25.11030 56.78438 22720 ft 483 kts 115°
2026-05-09 09:31 25.09748 56.81827 23125 ft 487 kts 115°
2026-05-09 09:31 25.08439 56.85287 23493 ft 491 kts 115°
2026-05-09 09:31 25.07117 56.88779 23841 ft 494 kts 115°
2026-05-09 09:32 25.04882 56.94678 24402 ft 499 kts 115°
2026-05-09 09:32 25.03992 56.97024 24617 ft 501 kts 115°
2026-05-09 09:33 24.99304 57.09358 25527 ft 510 kts 115°
2026-05-09 09:33 24.97928 57.12971 25731 ft 512 kts 115°
2026-05-09 09:33 24.96547 57.16596 25902 ft 514 kts 115°
2026-05-09 09:33 24.95160 57.20231 26047 ft 515 kts 115°
2026-05-09 09:34 24.93770 57.23872 26191 ft 516 kts 115°
2026-05-09 09:34 24.92396 57.27468 26355 ft 516 kts 115°
2026-05-09 09:34 24.90998 57.31124 26529 ft 516 kts 115°
2026-05-09 09:36 24.81218 57.56607 27828 ft 516 kts 115°
2026-05-09 09:36 24.79835 57.60196 28022 ft 516 kts 115°
2026-05-09 09:36 24.78435 57.63829 28231 ft 516 kts 115°
2026-05-09 09:37 24.77034 57.67460 28438 ft 516 kts 115°
2026-05-09 09:37 24.75631 57.71095 28653 ft 516 kts 115°
2026-05-09 09:37 24.74252 57.74737 28854 ft 517 kts 112°
2026-05-09 09:37 24.73169 57.78520 29075 ft 518 kts 105°
2026-05-09 09:38 24.72469 57.82415 29295 ft 519 kts 99°
2026-05-09 09:38 24.71990 57.86352 29535 ft 519 kts 98°
2026-05-09 09:38 24.71502 57.90293 29792 ft 519 kts 99°
2026-05-09 09:38 24.71008 57.94225 30039 ft 519 kts 99°
2026-05-09 09:39 24.70511 57.98152 30308 ft 518 kts 99°
2026-05-09 09:39 24.70014 58.02078 30605 ft 518 kts 99°
2026-05-09 09:39 24.69523 58.05942 30904 ft 517 kts 99°
2026-05-09 09:39 24.69025 58.09858 31223 ft 516 kts 99°
2026-05-09 09:40 24.68527 58.13765 31532 ft 516 kts 99°
2026-05-09 09:40 24.68027 58.17672 31851 ft 515 kts 99°
2026-05-09 09:40 24.67529 58.21570 32146 ft 515 kts 99°
2026-05-09 09:40 24.67028 58.25470 32471 ft 514 kts 99°
2026-05-09 09:41 24.66529 58.29357 32783 ft 513 kts 99°
2026-05-09 09:41 24.66029 58.33241 33086 ft 513 kts 99°
2026-05-09 09:41 24.65527 58.37129 33399 ft 512 kts 99°
2026-05-09 09:41 24.65026 58.41000 33705 ft 511 kts 99°
2026-05-09 09:42 24.64532 58.44819 33970 ft 511 kts 99°
2026-05-09 09:42 24.64029 58.48688 34210 ft 511 kts 99°
2026-05-09 09:42 24.63526 58.52556 34456 ft 510 kts 99°
2026-05-09 09:42 24.63023 58.56409 34693 ft 510 kts 99°
2026-05-09 09:43 24.62518 58.60277 34935 ft 510 kts 99°
2026-05-09 09:43 24.62012 58.64144 35175 ft 510 kts 100°
2026-05-09 09:43 24.61506 58.68003 35423 ft 510 kts 100°
2026-05-09 09:43 24.60999 58.71856 35675 ft 510 kts 100°
2026-05-09 09:44 24.60492 58.75710 35949 ft 509 kts 100°
2026-05-09 09:44 24.59982 58.79567 36202 ft 509 kts 100°
2026-05-09 09:44 24.59473 58.83420 36452 ft 509 kts 100°
2026-05-09 09:44 24.58963 58.87267 36700 ft 509 kts 100°
2026-05-09 09:45 24.58459 58.91069 36950 ft 509 kts 100°
2026-05-09 09:45 24.57947 58.94921 37199 ft 509 kts 100°
2026-05-09 09:45 24.57433 58.98776 37447 ft 509 kts 101°
2026-05-09 09:45 24.56920 59.02623 37678 ft 509 kts 101°
2026-05-09 09:46 24.56406 59.06466 37909 ft 508 kts 101°
2026-05-09 09:46 24.55891 59.10306 38147 ft 508 kts 101°
2026-05-09 09:46 24.55375 59.14149 38373 ft 508 kts 101°
2026-05-09 09:46 24.54858 59.17986 38572 ft 508 kts 101°
2026-05-09 09:47 24.54322 59.21813 38773 ft 506 kts 103°
2026-05-09 09:47 24.52758 59.29270 38779 ft 503 kts 106°
2026-05-09 09:48 24.51158 59.36755 38777 ft 504 kts 106°
2026-05-09 09:48 24.49555 59.44254 38780 ft 504 kts 106°
2026-05-09 09:49 24.47949 59.51742 38781 ft 503 kts 106°
2026-05-09 09:49 24.46340 59.59225 38779 ft 503 kts 106°
2026-05-09 09:50 24.44728 59.66706 38781 ft 503 kts 106°
2026-05-09 09:50 24.43120 59.74143 38775 ft 503 kts 106°
2026-05-09 09:51 24.41501 59.81615 38779 ft 503 kts 106°
2026-05-09 09:51 24.39876 59.89097 38781 ft 503 kts 106°
2026-05-09 09:52 24.38247 59.96577 38783 ft 503 kts 106°
2026-05-09 09:52 24.36625 60.04003 38776 ft 504 kts 106°
2026-05-09 09:53 24.34985 60.11500 38780 ft 503 kts 106°
2026-05-09 09:53 24.33350 60.18959 38781 ft 503 kts 106°
2026-05-09 09:54 24.31721 60.26378 38782 ft 503 kts 106°
2026-05-09 09:54 24.30075 60.33845 38782 ft 503 kts 106°
2026-05-09 09:55 24.28426 60.41307 38782 ft 503 kts 106°
2026-05-09 09:55 24.26779 60.48745 38779 ft 503 kts 106°
2026-05-09 09:56 24.25146 60.56103 38778 ft 503 kts 106°
2026-05-09 09:56 24.23496 60.63518 38780 ft 503 kts 106°
2026-05-09 09:57 24.21846 60.70917 38783 ft 502 kts 106°
2026-05-09 09:57 24.20184 60.78353 38782 ft 502 kts 106°
2026-05-09 09:58 24.18522 60.85793 38782 ft 502 kts 106°
2026-05-09 09:58 24.16857 60.93225 38784 ft 502 kts 106°
2026-05-09 09:59 24.15189 61.00654 38782 ft 502 kts 106°
2026-05-09 09:59 24.13518 61.08082 38782 ft 502 kts 106°
2026-05-09 10:00 24.11853 61.15460 38780 ft 502 kts 106°
2026-05-09 10:00 24.10175 61.22877 38781 ft 502 kts 106°
2026-05-09 10:01 24.08605 61.30334 38781 ft 503 kts 99°
2026-05-09 10:01 24.08499 61.37995 38783 ft 507 kts 83°
2026-05-09 10:02 24.09615 61.45617 38785 ft 506 kts 81°
2026-05-09 10:02 24.10725 61.53180 38785 ft 505 kts 81°
2026-05-09 10:03 24.11834 61.60796 38782 ft 506 kts 81°
2026-05-09 10:03 24.12939 61.68400 38782 ft 505 kts 81°
2026-05-09 10:04 24.14039 61.75990 38783 ft 505 kts 81°
2026-05-09 10:04 24.15121 61.83594 38782 ft 504 kts 82°
2026-05-09 10:05 24.16138 61.91141 38786 ft 504 kts 82°
2026-05-09 10:05 24.17164 61.98746 38786 ft 504 kts 82°
2026-05-09 10:06 24.18016 62.05048 38787 ft 503 kts 82°
2026-05-09 10:06 24.19040 62.12644 38788 ft 503 kts 82°
2026-05-09 10:07 24.20058 62.20229 38788 ft 503 kts 82°
2026-05-09 10:07 24.21070 62.27801 38788 ft 502 kts 82°
2026-05-09 10:08 24.22079 62.35377 38790 ft 502 kts 82°
2026-05-09 10:08 24.23078 62.42905 38790 ft 502 kts 82°
2026-05-09 10:09 24.24078 62.50474 38790 ft 501 kts 82°
2026-05-09 10:09 24.25074 62.58038 38792 ft 501 kts 82°
2026-05-09 10:10 24.26065 62.65597 38794 ft 501 kts 82°
2026-05-09 10:10 24.27051 62.73148 38793 ft 501 kts 82°
2026-05-09 10:11 24.28035 62.80709 38797 ft 501 kts 82°
2026-05-09 10:11 24.29014 62.88268 38795 ft 500 kts 82°
2026-05-09 10:12 24.29989 62.95821 38796 ft 500 kts 82°
2026-05-09 10:12 24.30960 63.03378 38801 ft 500 kts 82°
2026-05-09 10:13 24.31920 63.10879 38799 ft 500 kts 82°
2026-05-09 10:13 24.32883 63.18431 38795 ft 500 kts 82°
2026-05-09 10:14 24.33843 63.25989 38798 ft 500 kts 82°
2026-05-09 10:14 24.34794 63.33504 38798 ft 500 kts 82°
2026-05-09 10:15 24.35746 63.41064 38803 ft 500 kts 82°
2026-05-09 10:15 24.36694 63.48621 38805 ft 500 kts 82°
2026-05-09 10:16 24.37638 63.56176 38803 ft 500 kts 82°
2026-05-09 10:16 24.38579 63.63741 38803 ft 500 kts 82°
2026-05-09 10:17 24.39516 63.71296 38805 ft 500 kts 82°
2026-05-09 10:17 24.40450 63.78864 38808 ft 500 kts 82°
2026-05-09 10:18 24.41373 63.86381 38804 ft 500 kts 82°
2026-05-09 10:18 24.42299 63.93942 38810 ft 500 kts 82°
2026-05-09 10:19 24.43221 64.01511 38808 ft 500 kts 82°
2026-05-09 10:19 24.44139 64.09081 38807 ft 500 kts 82°
2026-05-09 10:20 24.45055 64.16658 38809 ft 500 kts 82°
2026-05-09 10:20 24.45967 64.24235 38814 ft 500 kts 82°
2026-05-09 10:21 24.46868 64.31756 38809 ft 500 kts 82°
2026-05-09 10:21 24.47773 64.39344 38808 ft 500 kts 82°
2026-05-09 10:22 24.48674 64.46929 38817 ft 501 kts 82°
2026-05-09 10:22 24.49571 64.54516 38814 ft 501 kts 82°
2026-05-09 10:23 24.50458 64.62053 38756 ft 498 kts 82°
2026-05-09 10:23 24.50900 64.65822 38302 ft 496 kts 82°
2026-05-09 10:23 24.51339 64.69577 37475 ft 495 kts 82°
2026-05-09 10:23 24.51778 64.73328 36480 ft 496 kts 82°
2026-05-09 10:24 24.52218 64.77095 35434 ft 498 kts 82°
2026-05-09 10:24 24.52658 64.80871 34383 ft 499 kts 82°
2026-05-09 10:24 24.53024 64.84669 33237 ft 502 kts 85°
2026-05-09 10:24 24.53307 64.88493 32078 ft 501 kts 84°
2026-05-09 10:25 24.53611 64.92299 30914 ft 501 kts 84°
2026-05-09 10:25 24.53918 64.96105 29971 ft 498 kts 84°
2026-05-09 10:25 24.54218 64.99862 29223 ft 488 kts 84°
2026-05-09 10:25 24.54508 65.03537 28422 ft 480 kts 84°
2026-05-09 10:26 24.54792 65.07162 27606 ft 473 kts 84°
2026-05-09 10:26 24.55066 65.10689 26837 ft 466 kts 84°
2026-05-09 10:26 24.55339 65.14215 26072 ft 459 kts 84°
2026-05-09 10:26 24.55607 65.17689 25327 ft 453 kts 84°
2026-05-09 10:27 24.55870 65.21117 24594 ft 447 kts 84°
2026-05-09 10:27 24.56130 65.24504 23888 ft 441 kts 84°
2026-05-09 10:27 24.56384 65.27840 23156 ft 435 kts 84°
2026-05-09 10:27 24.56634 65.31123 22388 ft 428 kts 84°
2026-05-09 10:28 24.56876 65.34311 21666 ft 420 kts 84°
2026-05-09 10:28 24.57117 65.37480 20926 ft 414 kts 84°
2026-05-09 10:28 24.57354 65.40605 20198 ft 408 kts 84°
2026-05-09 10:28 24.57587 65.43686 19487 ft 402 kts 84°
2026-05-09 10:29 24.57815 65.46721 18780 ft 396 kts 84°
2026-05-09 10:29 24.58040 65.49718 18116 ft 390 kts 84°
2026-05-09 10:29 24.58260 65.52672 17317 ft 385 kts 84°
2026-05-09 10:29 24.58478 65.55589 16541 ft 380 kts 84°
2026-05-09 10:30 24.58691 65.58467 15767 ft 376 kts 84°
2026-05-09 10:30 24.58902 65.61313 15026 ft 372 kts 84°
2026-05-09 10:30 24.59110 65.64126 14302 ft 368 kts 84°
2026-05-09 10:30 24.59316 65.66917 13597 ft 364 kts 84°
2026-05-09 10:31 24.59520 65.69675 12809 ft 361 kts 84°
2026-05-09 10:31 24.59720 65.72382 12041 ft 359 kts 84°
2026-05-09 10:31 24.59921 65.75107 11295 ft 356 kts 84°
2026-05-09 10:31 24.60117 65.77793 10842 ft 346 kts 84°
2026-05-09 10:32 24.60304 65.80357 10669 ft 328 kts 84°
2026-05-09 10:32 24.60479 65.82790 10538 ft 311 kts 84°
2026-05-09 10:32 24.60647 65.85098 10393 ft 295 kts 84°
2026-05-09 10:32 24.60806 65.87299 10170 ft 285 kts 84°
2026-05-09 10:33 24.60963 65.89444 9906 ft 278 kts 84°
2026-05-09 10:33 24.61119 65.91585 9831 ft 285 kts 84°
2026-05-09 10:33 24.61277 65.93762 9811 ft 285 kts 84°
2026-05-09 10:33 24.61433 65.95935 9814 ft 285 kts 84°
2026-05-09 10:34 24.61590 65.98115 9812 ft 286 kts 84°
2026-05-09 10:34 24.61902 66.02468 9814 ft 285 kts 84°
2026-05-09 10:34 24.62057 66.04646 9816 ft 285 kts 84°
2026-05-09 10:35 24.62213 66.06826 9814 ft 285 kts 84°
2026-05-09 10:35 24.62367 66.09001 9812 ft 285 kts 84°
2026-05-09 10:35 24.62522 66.11184 9813 ft 286 kts 84°
2026-05-09 10:35 24.62675 66.13359 9812 ft 286 kts 84°
2026-05-09 10:36 24.62827 66.15517 9814 ft 286 kts 84°
2026-05-09 10:36 24.62980 66.17699 9814 ft 286 kts 84°
2026-05-09 10:36 24.63134 66.19871 9815 ft 287 kts 84°
2026-05-09 10:36 24.63288 66.22056 9636 ft 286 kts 84°
2026-05-09 10:37 24.63443 66.24256 9106 ft 291 kts 84°
2026-05-09 10:37 24.63595 66.26429 8958 ft 279 kts 84°
2026-05-09 10:37 24.63738 66.28506 8844 ft 265 kts 84°
2026-05-09 10:37 24.63874 66.30482 8732 ft 253 kts 84°
2026-05-09 10:38 24.64006 66.32395 8451 ft 250 kts 84°
2026-05-09 10:38 24.64138 66.34302 8106 ft 250 kts 84°
2026-05-09 10:38 24.64271 66.36207 7800 ft 249 kts 85°
2026-05-09 10:38 24.64403 66.38100 7494 ft 248 kts 85°
2026-05-09 10:39 24.64533 66.39983 7187 ft 247 kts 85°
2026-05-09 10:39 24.64662 66.41861 6882 ft 246 kts 85°
2026-05-09 10:39 24.64791 66.43739 6586 ft 245 kts 85°
2026-05-09 10:39 24.64918 66.45604 6293 ft 245 kts 85°
2026-05-09 10:40 24.65046 66.47464 5995 ft 244 kts 85°
2026-05-09 10:40 24.65171 66.49308 5843 ft 241 kts 85°
2026-05-09 10:40 24.65297 66.51170 5812 ft 244 kts 85°
2026-05-09 10:40 24.65400 66.52802 5807 ft 243 kts 89°
2026-05-09 10:41 24.65013 66.54593 5810 ft 244 kts 118°
2026-05-09 10:41 24.64132 66.56199 5813 ft 245 kts 121°
2026-05-09 10:41 24.63235 66.57789 5815 ft 245 kts 121°
2026-05-09 10:41 24.62336 66.59382 5811 ft 245 kts 121°
2026-05-09 10:42 24.61436 66.60975 5809 ft 245 kts 121°
2026-05-09 10:42 24.60538 66.62568 5817 ft 245 kts 121°
2026-05-09 10:42 24.59640 66.64157 5814 ft 245 kts 121°
2026-05-09 10:42 24.58748 66.65733 5813 ft 245 kts 121°
2026-05-09 10:43 24.57835 66.67343 5814 ft 245 kts 121°
2026-05-09 10:43 24.56957 66.68896 5814 ft 245 kts 121°
2026-05-09 10:43 24.56093 66.70500 5780 ft 244 kts 103°
2026-05-09 10:43 24.55219 66.72134 5670 ft 249 kts 115°
2026-05-09 10:44 24.54224 66.73637 6216 ft 249 kts 106°
2026-05-09 10:44 24.53426 66.75408 6533 ft 272 kts 105°
2026-05-09 10:44 24.52583 66.77374 6396 ft 282 kts 103°
2026-05-09 10:44 24.52009 66.79349 6319 ft 266 kts 92°
2026-05-09 10:45 24.51944 66.81279 6192 ft 247 kts 68°
2026-05-09 10:46 24.54830 66.87871 4942 ft 222 kts 50°
2026-05-09 10:46 24.55407 66.89377 4833 ft 209 kts 46°
2026-05-09 10:46 24.56103 66.90751 4839 ft 204 kts 58°
2026-05-09 10:46 24.56909 66.92085 5021 ft 212 kts 48°
2026-05-09 10:47 24.57935 66.93247 5375 ft 211 kts 44°
2026-05-09 10:47 24.58959 66.94404 5724 ft 211 kts 47°
2026-05-09 10:47 24.59945 66.95664 5819 ft 226 kts 50°
2026-05-09 10:47 24.60931 66.97084 5814 ft 241 kts 53°
2026-05-09 10:48 24.61908 66.98594 5818 ft 242 kts 54°
2026-05-09 10:48 24.62862 67.00114 5821 ft 242 kts 55°
2026-05-09 10:48 24.63815 67.01641 5818 ft 242 kts 55°
2026-05-09 10:48 24.64770 67.03168 5816 ft 242 kts 54°
2026-05-09 10:49 24.65726 67.04694 5819 ft 242 kts 54°
2026-05-09 10:49 24.66672 67.06201 5819 ft 242 kts 54°
2026-05-09 10:49 24.67630 67.07725 5816 ft 243 kts 54°
2026-05-09 10:49 24.68580 67.09237 5819 ft 242 kts 54°
2026-05-09 10:50 24.69539 67.10762 5822 ft 242 kts 54°
2026-05-09 10:50 24.70490 67.12275 5821 ft 234 kts 54°
2026-05-09 10:50 24.71411 67.13742 5825 ft 234 kts 54°
2026-05-09 10:50 24.72337 67.15215 5822 ft 234 kts 54°
2026-05-09 10:51 24.73261 67.16687 5825 ft 234 kts 54°
2026-05-09 10:51 24.74185 67.18159 5827 ft 234 kts 54°
2026-05-09 10:51 24.75099 67.19616 5830 ft 234 kts 54°
2026-05-09 10:51 24.76012 67.21072 5824 ft 227 kts 54°
2026-05-09 10:52 24.76903 67.22494 5827 ft 227 kts 54°
2026-05-09 10:52 24.77795 67.23918 5781 ft 224 kts 54°
2026-05-09 10:52 24.78393 67.24873 5644 ft 224 kts 54°
2026-05-09 10:52 24.79280 67.26287 5396 ft 224 kts 55°
2026-05-09 10:53 24.80450 67.28154 5078 ft 223 kts 55°
2026-05-09 10:53 24.81033 67.29086 4929 ft 223 kts 55°
2026-05-09 10:53 24.81913 67.30491 4704 ft 222 kts 55°
2026-05-09 10:53 24.82785 67.31884 4453 ft 222 kts 55°
2026-05-09 10:54 24.83661 67.33301 4137 ft 226 kts 56°
2026-05-09 10:54 24.84543 67.34733 3929 ft 225 kts 56°
2026-05-09 10:54 24.85422 67.36128 3839 ft 217 kts 55°
2026-05-09 10:54 24.86272 67.37473 3780 ft 210 kts 56°
2026-05-09 10:55 24.87085 67.38760 3704 ft 200 kts 53°
2026-05-09 10:55 24.88146 67.39648 3564 ft 192 kts 16°
2026-05-09 10:55 24.89455 67.39658 3309 ft 189 kts 343°
2026-05-09 10:55 24.90730 67.39267 3041 ft 191 kts 341°
2026-05-09 10:56 24.91986 67.38862 2846 ft 189 kts 341°
2026-05-09 10:56 24.93245 67.38462 2825 ft 190 kts 341°
2026-05-09 10:56 24.94507 67.38036 2814 ft 190 kts 331°
2026-05-09 10:56 24.95416 67.37079 2823 ft 180 kts 290°
2026-05-09 10:57 24.95535 67.35788 2820 ft 170 kts 254°
2026-05-09 10:57 24.95185 67.34543 2828 ft 171 kts 250°
2026-05-09 10:57 24.94847 67.33267 2826 ft 174 kts 253°
2026-05-09 10:57 24.94519 67.31969 2700 ft 176 kts 252°
2026-05-09 10:58 24.94197 67.30686 2467 ft 169 kts 252°
2026-05-09 10:58 24.93897 67.29494 2273 ft 152 kts 251°
2026-05-09 10:58 24.93634 67.28444 2090 ft 134 kts 251°
2026-05-09 10:58 24.93400 67.27515 1919 ft 118 kts 249°
2026-05-09 10:59 24.93182 67.26659 1783 ft 120 kts 249°
2026-05-09 10:59 24.92953 67.25754 1635 ft 123 kts 249°
2026-05-09 10:59 24.92703 67.24769 1480 ft 162 kts 250°
2026-05-09 10:59 24.92359 67.23409 1236 ft 182 kts 252°
2026-05-09 11:00 24.92061 67.22200 1002 ft 153 kts 252°
2026-05-09 11:00 24.91819 67.21230 824 ft 130 kts 250°
2026-05-09 11:00 24.91594 67.20345 663 ft 111 kts 249°
2026-05-09 11:00 24.91376 67.19493 520 ft 121 kts 252°
2026-05-09 11:01 24.91135 67.18522 360 ft 139 kts 253°
2026-05-09 11:01 24.90890 67.17558 170 ft 120 kts 251°
2026-05-09 11:01 24.90678 67.16738 105 ft 96 kts 256°
2026-05-09 11:01 24.90527 67.16127 104 ft 74 kts 254°
2026-05-09 11:02 24.90413 67.15674 104 ft 56 kts 253°
2026-05-09 11:02 24.90308 67.15320 103 ft 53 kts 262°
2026-05-09 11:02 24.90245 67.15038 103 ft 16 kts 239°
2026-05-09 11:02 24.90155 67.14929 103 ft 1 kts 226°
2026-05-09 11:03 24.90103 67.14874 103 ft 22 kts 212°
2026-05-09 11:03 24.90024 67.14872 102 ft 10 kts 125°
2026-05-09 11:03 24.90058 67.15044 100 ft 31 kts 74°
2026-05-09 11:03 24.90132 67.15342 101 ft 46 kts 76°
2026-05-09 11:04 24.90188 67.15559 101 ft 18 kts 73°
2026-05-09 11:04 24.90243 67.15751 102 ft 34 kts 76°
2026-05-09 11:04 24.90304 67.16016 102 ft 34 kts 73°
2026-05-09 11:04 24.90365 67.16259 102 ft 26 kts 75°
2026-05-09 11:05 24.90420 67.16480 102 ft 33 kts 75°
2026-05-09 11:05 24.90452 67.16662 100 ft 17 kts 105°
2026-05-09 11:05 24.90382 67.16708 101 ft 13 kts 162°
2026-05-09 11:05 24.90292 67.16738 101 ft 12 kts 163°
2026-05-09 11:06 24.90229 67.16767 101 ft 7 kts 123°
2026-05-09 11:06 24.90234 67.16818 101 ft 9 kts 85°
2026-05-09 11:06 24.90235 67.16841 101 ft 4 kts 88°
2026-05-09 11:06 24.90235 67.16847 101 ft 0 kts 88°
2026-05-09 11:07 24.90235 67.16849 101 ft 0 kts 88°